Sheldon, IA

12:40 AM CDT on July 25, 2017 (GMT -0500)
Sheldon Municipal

Weather History for KSHL - October, 2014

Change the Weather History Date:

Tuesday, October 28, 2014

  Actual Average Record
Temperature  
Mean Temperature 42 °F -  
Max Temperature 46 °F 53 °F 75 °F (2016)
Min Temperature 39 °F 31 °F 13 °F (1967)
Degree Days  
Heating Degree Days 22    
Moisture  
Dew Point 33 °F    
Average Humidity 66    
Maximum Humidity 81    
Minimum Humidity 57    
Precipitation  
Precipitation 0.00 in - - ()
Sea Level Pressure  
Sea Level Pressure 29.97 in    
Wind  
Wind Speed 14 mph (WNW)    
Max Wind Speed 24 mph    
Max Gust Speed 36 mph    
Visibility 10 miles    
Events      
Averages and records for this station are not official NWS values.
T = Trace of Precipitation, MM = Missing Value Source: NWS Daily Summary

Daily Weather History Graph

Daily Weather History Graph

Search for Another Location

Airport or City:

Trip Planner

Search our weather history database for the weather conditions in past years. The results will help you decide how hot, cold, wet, or windy it might be!

Date:

Astronomy

Oct. 28, 2014 Rise Set
Actual Time 7:53 AM CDT 6:20 PM CDT
Civil Twilight 7:23 AM CDT 6:49 PM CDT
Nautical Twilight 6:50 AM CDT 7:23 PM CDT
Astronomical Twilight 6:17 AM CDT 7:56 PM CDT
Moon 12:26 PM CDT (10/28) 10:24 PM CDT (10/28)
Length of Visible Light 11h 25m
Length of Day
10h 27m
Waxing Crescent, 24% of the Moon is Illuminated
Oct 28
Waxing Crescent
Oct 30
First Quarter
Nov 6
Full
Nov 14
Last Quarter
Nov 22
New

Hourly Weather History & Observations

Time (CDT) Temp. Windchill Dew Point Humidity Pressure Visibility Wind Dir Wind Speed Gust Speed Precip Events Conditions
12:15 AM 42.8 °F 37.0 °F 33.8 °F 70% 29.85 in 10.0 mi West 10.4 mph - N/A   Partly Cloudy
12:35 AM 42.8 °F 37.5 °F 33.8 °F 70% 29.85 in 10.0 mi WSW 9.2 mph - N/A   Partly Cloudy
12:55 AM 42.8 °F 35.4 °F 33.8 °F 70% 29.85 in 10.0 mi West 15.0 mph - N/A   Clear
1:15 AM 42.8 °F 35.4 °F 33.8 °F 70% 29.85 in 10.0 mi West 15.0 mph - N/A   Clear
1:35 AM 42.8 °F 37.0 °F 33.8 °F 70% 29.86 in 10.0 mi West 10.4 mph 17.3 mph N/A   Clear
1:55 AM 41.0 °F 34.3 °F 33.8 °F 76% 29.86 in 10.0 mi West 11.5 mph - N/A   Clear
2:15 AM 41.0 °F 33.9 °F 33.8 °F 76% 29.86 in 10.0 mi West 12.7 mph - N/A   Clear
2:35 AM 41.0 °F 34.3 °F 33.8 °F 76% 29.86 in 10.0 mi West 11.5 mph - N/A   Clear
2:55 AM 39.2 °F 31.6 °F 33.8 °F 81% 29.86 in 10.0 mi West 12.7 mph - N/A   Clear
3:15 AM 41.0 °F 33.9 °F 33.8 °F 76% 29.86 in 10.0 mi West 12.7 mph - N/A   Clear
3:35 AM 39.2 °F 31.6 °F 33.8 °F 81% 29.86 in 10.0 mi West 12.7 mph 18.4 mph N/A   Clear
3:55 AM 39.2 °F 32.0 °F 33.8 °F 81% 29.86 in 10.0 mi West 11.5 mph 19.6 mph N/A   Clear
4:15 AM 39.2 °F 32.5 °F 33.8 °F 81% 29.86 in 10.0 mi West 10.4 mph 16.1 mph N/A   Clear
4:35 AM 39.2 °F 32.0 °F 32.0 °F 75% 29.86 in 10.0 mi West 11.5 mph - N/A   Partly Cloudy
4:55 AM 39.2 °F 32.0 °F 32.0 °F 75% 29.86 in 10.0 mi West 11.5 mph - N/A   Clear
5:15 AM 39.2 °F 31.6 °F 32.0 °F 75% 29.86 in 10.0 mi West 12.7 mph 19.6 mph N/A   Clear
5:35 AM 39.2 °F 31.2 °F 32.0 °F 75% 29.86 in 10.0 mi West 13.8 mph - N/A   Clear
5:55 AM 39.2 °F 31.6 °F 33.8 °F 81% 29.87 in 10.0 mi West 12.7 mph - N/A   Mostly Cloudy
6:15 AM 41.0 °F 32.5 °F 33.8 °F 76% 29.87 in 10.0 mi West 17.3 mph - N/A   Overcast
6:35 AM 42.8 °F 34.8 °F 33.8 °F 70% 29.87 in 10.0 mi West 17.3 mph 24.2 mph N/A   Overcast
6:55 AM 41.0 °F 33.1 °F 33.8 °F 76% 29.88 in 10.0 mi West 15.0 mph 23.0 mph N/A   Overcast
7:15 AM 42.8 °F 34.8 °F 33.8 °F 70% 29.88 in 10.0 mi West 17.3 mph 28.8 mph N/A   Overcast
7:35 AM 41.0 °F 32.8 °F 33.8 °F 76% 29.88 in 10.0 mi West 16.1 mph 24.2 mph N/A   Overcast
7:55 AM 39.2 °F 31.6 °F 33.8 °F 81% 29.89 in 10.0 mi West 12.7 mph 20.7 mph N/A   Overcast
8:15 AM 39.2 °F 31.6 °F 33.8 °F 81% 29.90 in 10.0 mi West 12.7 mph 19.6 mph N/A   Overcast
8:35 AM 39.2 °F 31.2 °F 33.8 °F 81% 29.90 in 10.0 mi West 13.8 mph 20.7 mph N/A   Scattered Clouds
8:55 AM 42.8 °F 34.8 °F 33.8 °F 70% 29.91 in 10.0 mi West 17.3 mph - N/A   Mostly Cloudy
9:15 AM 42.8 °F 35.1 °F 33.8 °F 70% 29.92 in 10.0 mi West 16.1 mph 23.0 mph N/A   Overcast
9:35 AM 44.6 °F 36.9 °F 33.8 °F 66% 29.93 in 10.0 mi WNW 18.4 mph 26.5 mph N/A   Overcast
9:55 AM 42.8 °F 34.8 °F 33.8 °F 70% 29.94 in 10.0 mi WNW 17.3 mph 26.5 mph N/A   Overcast
10:15 AM 42.8 °F 34.3 °F 33.8 °F 70% 29.94 in 10.0 mi WNW 19.6 mph 27.6 mph N/A   Overcast
10:35 AM 44.6 °F 36.6 °F 33.8 °F 66% 29.95 in 10.0 mi WNW 19.6 mph 33.4 mph N/A   Overcast
10:55 AM 44.6 °F 37.2 °F 33.8 °F 66% 29.96 in 10.0 mi WNW 17.3 mph 27.6 mph N/A   Overcast
11:15 AM 46.4 °F 40.1 °F 33.8 °F 62% 29.97 in 10.0 mi WNW 15.0 mph 28.8 mph N/A   Overcast
11:35 AM 46.4 °F 39.8 °F 32.0 °F 57% 29.98 in 10.0 mi WNW 16.1 mph 28.8 mph N/A   Overcast
11:55 AM 46.4 °F 39.2 °F 32.0 °F 57% 29.98 in 10.0 mi WNW 18.4 mph 29.9 mph N/A   Overcast
12:15 PM 46.4 °F 39.2 °F 32.0 °F 57% 29.98 in 10.0 mi WNW 18.4 mph 31.1 mph N/A   Overcast
12:35 PM 46.4 °F 38.1 °F 32.0 °F 57% 29.99 in 10.0 mi WNW 24.2 mph 32.2 mph N/A   Overcast
12:55 PM 46.4 °F 38.7 °F 32.0 °F 57% 29.99 in 10.0 mi WNW 20.7 mph 28.8 mph N/A   Overcast
1:15 PM 46.4 °F 39.0 °F 32.0 °F 57% 29.99 in 10.0 mi NW 19.6 mph 27.6 mph N/A   Overcast
1:35 PM 46.4 °F 38.3 °F 32.0 °F 57% 29.99 in 10.0 mi WNW 23.0 mph 32.2 mph N/A   Overcast
1:55 PM 46.4 °F 38.7 °F 32.0 °F 57% 29.99 in 10.0 mi WNW 20.7 mph 29.9 mph N/A   Overcast
2:15 PM 46.4 °F 38.1 °F 32.0 °F 57% 29.99 in 10.0 mi WNW 24.2 mph 35.7 mph N/A   Overcast
2:35 PM 46.4 °F 39.0 °F 32.0 °F 57% 29.99 in 10.0 mi WNW 19.6 mph 32.2 mph N/A   Overcast
2:55 PM 46.4 °F 39.8 °F 32.0 °F 57% 30.00 in 10.0 mi WNW 16.1 mph 24.2 mph N/A   Overcast
3:15 PM 46.4 °F 39.5 °F 32.0 °F 57% 30.00 in 10.0 mi WNW 17.3 mph 25.3 mph N/A   Overcast
3:35 PM 46.4 °F 39.5 °F 32.0 °F 57% 30.00 in 10.0 mi WNW 17.3 mph 25.3 mph N/A   Overcast
3:55 PM 46.4 °F 38.7 °F 32.0 °F 57% 30.01 in 10.0 mi WNW 20.7 mph 29.9 mph N/A   Overcast
4:15 PM 46.4 °F 39.5 °F 32.0 °F 57% 30.01 in 10.0 mi WNW 17.3 mph 25.3 mph N/A   Overcast
4:35 PM 46.4 °F 39.8 °F 32.0 °F 57% 30.02 in 10.0 mi WNW 16.1 mph 23.0 mph N/A   Overcast
4:55 PM 46.4 °F 40.1 °F 32.0 °F 57% 30.03 in 10.0 mi WNW 15.0 mph 26.5 mph N/A   Overcast
5:15 PM 46.4 °F 40.1 °F 32.0 °F 57% 30.03 in 10.0 mi WNW 15.0 mph 23.0 mph N/A   Overcast
5:35 PM 46.4 °F 40.1 °F 32.0 °F 57% 30.03 in 10.0 mi WNW 15.0 mph 21.9 mph N/A   Overcast
5:55 PM 44.6 °F 37.4 °F 32.0 °F 61% 30.04 in 10.0 mi WNW 16.1 mph 23.0 mph N/A   Overcast
6:15 PM 44.6 °F 39.2 °F 32.0 °F 61% 30.05 in 10.0 mi WNW 10.4 mph 18.4 mph N/A   Overcast
6:35 PM 44.6 °F 38.4 °F 32.0 °F 61% 30.05 in 10.0 mi WNW 12.7 mph 19.6 mph N/A   Overcast
6:55 PM 44.6 °F 37.4 °F 32.0 °F 61% 30.05 in 10.0 mi WNW 16.1 mph 21.9 mph N/A   Overcast
7:15 PM 44.6 °F 38.1 °F 32.0 °F 61% 30.06 in 10.0 mi WNW 13.8 mph - N/A   Overcast
7:35 PM 44.6 °F 38.1 °F 32.0 °F 61% 30.07 in 10.0 mi WNW 13.8 mph 20.7 mph N/A   Overcast
7:55 PM 44.6 °F 38.4 °F 30.2 °F 57% 30.07 in 10.0 mi WNW 12.7 mph 26.5 mph N/A   Overcast
8:15 PM 44.6 °F 38.4 °F 32.0 °F 61% 30.08 in 10.0 mi WNW 12.7 mph 19.6 mph N/A   Overcast
8:35 PM 44.6 °F 38.1 °F 32.0 °F 61% 30.08 in 10.0 mi WNW 13.8 mph 20.7 mph N/A   Overcast
8:55 PM 44.6 °F 38.4 °F 32.0 °F 61% 30.08 in 10.0 mi WNW 12.7 mph 18.4 mph N/A   Overcast
9:15 PM 44.6 °F 38.8 °F 32.0 °F 61% 30.08 in 10.0 mi NW 11.5 mph 19.6 mph N/A   Overcast
9:35 PM 44.6 °F 38.8 °F 32.0 °F 61% 30.09 in 10.0 mi NW 11.5 mph 23.0 mph N/A   Overcast
9:55 PM 44.6 °F 37.4 °F 32.0 °F 61% 30.09 in 10.0 mi NW 16.1 mph - N/A   Overcast
10:15 PM 44.6 °F 37.8 °F 32.0 °F 61% 30.09 in 10.0 mi WNW 15.0 mph 24.2 mph N/A   Overcast
10:35 PM 44.6 °F 38.1 °F 32.0 °F 61% 30.10 in 10.0 mi WNW 13.8 mph - N/A   Overcast
10:55 PM 44.6 °F 38.4 °F 30.2 °F 57% 30.10 in 10.0 mi WNW 12.7 mph 18.4 mph N/A   Overcast
11:15 PM 44.6 °F 38.4 °F 32.0 °F 61% 30.09 in 10.0 mi WNW 12.7 mph 19.6 mph N/A   Overcast
11:35 PM 42.8 °F 36.6 °F 32.0 °F 66% 30.10 in 10.0 mi WNW 11.5 mph 19.6 mph N/A   Overcast
11:55 PM 42.8 °F 36.6 °F 32.0 °F 66% 30.10 in 10.0 mi WNW 11.5 mph 18.4 mph N/A   Overcast